Location: Bauen
(46.9356°N, 8.5784°E)
Time: 18:34:53
(UTC+00:00)

Lacrosse 5 - Pass Details

Date: 18 February 2020
Orbit: 715 x 724 km, 57.0° (Epoch: 21 March)

Event Time Altitude Azimuth Distance (km) Brightness Sun altitude
Exits shadow 03:47:39 61° 20° (NNE) 815 2.1 -27.6°
Maximum altitude 03:47:51 62° 33° (NNE) 811 2.2 -27.6°
Drops below altitude 10° 03:52:53 10° 114° (ESE) 2,206 5.0 -26.8°
Sets 03:55:17 0° 118° (ESE) 3,125 5.9 -26.3°
